Flag for Slovakia Weather past 2 weeks in Bratislava, Slovakia

Now
45 °F

Passing clouds.


Feels Like: 37 °F
Forecast: 36 / 59 °F
Wind: 20 mph from Northeast

Location: Bratislava Ivanka


UV Index: 3 (Moderate)

Visibility: N/A


Pressure: 30.24 "Hg

Humidity: 53%

Dew point: 28 °F

Location of BratislavaLocation

Historic Weather in Bratislava

°F

Bratislava temperature yesterday

Maximum temperature yesterday: 48 °F (at 11:30 AM)
Minimum temperature yesterday: 41 °F (at 3:00 AM)
Average temperature yesterday: 44 °F

Past Weeks' High & Low Weather Summary

 TemperatureHumidityPressure
High75 °F (Apr 8, 3:00 PM)94% (Apr 7, 3:30 AM)30.21 "Hg (Apr 7, 3:30 AM)
Low39 °F (Apr 11, 4:30 AM)33% (Apr 9, 5:30 PM)29.71 "Hg (Apr 3, 4:00 PM)
Average53 °F64%29.97 "Hg
* Reported Apr 1 7:00 PM — Apr 16 7:00 PM, Bratislava, Weather by CustomWeather, © 2014

Note: Actual official high and low records may vary slightly from our data, if they occured in-between our weather recording intervals... More about our weather records

Advertising

Historic Weather Conditions — Data for Previous 24 hours

 ConditionsComfort  
Time TempWeatherWind HumidityBarometerVisibility
7:00 PM
Apr 16
46 °FPassing clouds.21 mph50%30.21 "HgN/A
6:30 PM48 °FPassing clouds.22 mph50%30.21 "HgN/A
6:00 PM50 °FPassing clouds.23 mph47%30.21 "HgN/A
5:30 PM52 °FSunny.25 mph44%30.21 "Hg10 mi
5:00 PM52 °FSunny.24 mph41%30.18 "Hg10 mi
4:30 PM54 °FPassing clouds.23 mph41%30.18 "HgN/A
4:00 PM54 °FSunny.29 mph41%30.18 "Hg10 mi
3:30 PM54 °FScattered clouds.26 mph41%30.18 "HgN/A
3:00 PM52 °FSunny.23 mph41%30.18 "Hg10 mi
2:30 PM54 °FSunny.24 mph41%30.18 "Hg10 mi
2:00 PM52 °FScattered clouds.23 mph44%30.18 "HgN/A
1:30 PM52 °FPartly sunny.21 mph41%30.18 "HgN/A
1:00 PM52 °FBroken clouds.15 mph50%30.21 "HgN/A
12:30 PM52 °FScattered clouds.17 mph50%30.21 "HgN/A
12:00 PM50 °FBroken clouds.17 mph58%30.21 "HgN/A
11:30 AM48 °FBroken clouds.17 mph58%30.21 "HgN/A
11:00 AM48 °FBroken clouds.16 mph58%30.21 "HgN/A
10:30 AM48 °FBroken clouds.13 mph62%30.21 "HgN/A
10:00 AM46 °FBroken clouds.18 mph66%30.21 "HgN/A
9:30 AM46 °FBroken clouds.17 mph66%30.18 "HgN/A
9:00 AM48 °FPartly sunny.18 mph66%30.18 "HgN/A
8:30 AM46 °FPartly sunny.15 mph66%30.18 "HgN/A
8:00 AM45 °FBroken clouds.10 mph71%30.15 "HgN/A
7:30 AM43 °FScattered clouds.16 mph76%30.15 "HgN/A
7:00 AM43 °FBroken clouds.12 mph76%30.15 "HgN/A
6:30 AM41 °FPassing clouds.18 mph81%30.15 "HgN/A
6:00 AM41 °FPassing clouds.9 mph81%30.15 "HgN/A
5:30 AM41 °FPassing clouds.18 mph81%30.12 "HgN/A
5:00 AM43 °FPassing clouds.21 mph71%30.12 "HgN/A
4:30 AM41 °FPassing clouds.20 mph76%30.12 "HgN/A
4:00 AM41 °FPassing clouds.6 mph76%30.12 "HgN/A
3:30 AM41 °FPassing clouds.6 mph76%30.12 "HgN/A
3:00 AM41 °FPassing clouds.8 mph76%30.09 "HgN/A
1:00 AM43 °FPassing clouds.15 mph76%30.12 "HgN/A
12:30 AM43 °FPassing clouds.12 mph76%30.12 "HgN/A
12:00 AM43 °FLight rain. Partly cloudy.15 mph76%30.09 "HgN/A
11:00 PM
Apr 15
43 °FLight rain. Partly cloudy.14 mph81%30.12 "HgN/A
10:30 PM43 °FLight rain. Passing clouds.13 mph76%30.09 "HgN/A
10:00 PM45 °FLight rain. Partly cloudy.18 mph71%30.09 "HgN/A
9:30 PM45 °FLight rain. Partly cloudy.14 mph71%30.07 "HgN/A
9:00 PM45 °FPartly cloudy.13 mph76%30.07 "HgN/A
8:30 PM43 °FScattered clouds.8 mph81%30.07 "HgN/A
8:00 PM43 °FThunderstorms. Scattered clouds.13 mph81%30.04 "HgN/A
7:30 PM45 °FScattered showers. Broken clouds.9 mph76%30.04 "HgN/A
7:00 PM46 °FScattered showers. Broken clouds.14 mph71%30.04 "HgN/A
Weather by CustomWeather, © 2014

See weather overview